FLOCK 3P-85 (41983 NORAD) Tracking and Keplerian Element Data

This shows tracking and keplerian element data for the satellite.

Feedback or suggestion? Click here.




ElementValue
Catalog41983
NameFLOCK 3P-85
Epoch Orbit17715
Epoch Day114.91991518
Epoch Year2020
RAAN184.3832
Inclination97.3704
Eccentricity0.0008989
Argument of Perigee124.1883
Mean Anonmoly236.0209
Mean Motion15.2737289
Decay Rate3.211E-05
L11 41983U 17008AM 20114.91991518 .00003211 00000-0 12247-3 0 9998
L22 41983 97.3704 184.3832 0008989 124.1883 236.0209 15.27372890177154



Live tracking and technical data element details for FLOCK 3P-85 (NORAD 41983). FLOCK 3P-85 can be tracked NOW for your location showing map with azimuth and elevation plus other details from your city location.







IsCatalogInMostPopularTable: catalog: 41983, numindb: 584
Update: records affected: 1



GetName: 41983 FLOCK 3P-85

Hit Count: updated at: Fri, 16 May 2025 10:51:13 GMT